Location: Dodge City Community College Clyde Tombaugh Astronomy Center
(37.7756°N, 100.0412°W)
Time: 04:05:14
(UTC+00:00)

Cosmos 2228 Rocket - Pass Details

Date: 06 July 2022
Orbit: 618 x 651 km, 82.5° (Epoch: 07 August)

Event Time Altitude Azimuth Distance (km) Brightness Sun altitude
Rises 09:56:29 0° 353° (N) 2,921 7.1 -14.7°
Reaches altitude 10° 09:58:43 10° 353° (N) 2,014 6.2 -14.3°
Maximum altitude 10:03:11 89° 72° (ENE) 639 3.1 -13.7°
Drops below altitude 10° 10:07:41 10° 174° (S) 2,020 5.3 -13.1°
Enters shadow 10:08:53 - 174° (S) 2,503 5.8 -12.9°
